timestamp,wind_dir_avg,wind_spd_avg,wind_spd_max_dir,wind_spd_gust,battery_voltage,lat,long
2023-09-29 00:04:01+00:00,32.0,5.27,26.0,5.98,12.41,47.59359,-54.27349
2023-09-29 00:14:00+00:00,39.0,5.05,38.0,5.87,12.41,47.59359,-54.27349
2023-09-29 00:24:00+00:00,38.0,5.84,37.0,6.43,12.41,47.59359,-54.27349
2023-09-29 00:34:00+00:00,42.0,4.79,43.0,5.42,12.41,47.59359,-54.27349
2023-09-29 00:44:00+00:00,30.0,5.33,33.0,6.08,12.41,47.59359,-54.27349
2023-09-29 00:54:00+00:00,19.0,4.32,15.0,5.52,12.41,47.59359,-54.27349
2023-09-29 01:04:00+00:00,13.0,3.42,12.0,3.82,12.41,47.59359,-54.27349
2023-09-29 01:14:01+00:00,7.0,3.35,11.0,4.0,12.41,47.59359,-54.27349
2023-09-29 01:24:01+00:00,0.0,2.36,358.0,2.86,12.41,47.59359,-54.27349
2023-09-29 01:34:01+00:00,3.0,1.93,21.0,2.32,12.41,47.59359,-54.27349
2023-09-29 01:44:01+00:00,14.0,2.43,6.0,3.3,12.41,47.59359,-54.27349
2023-09-29 01:54:01+00:00,337.0,1.99,351.0,2.35,12.41,47.59359,-54.27349
2023-09-29 02:04:01+00:00,307.0,1.89,306.0,2.45,12.41,47.59359,-54.27349
2023-09-29 02:14:01+00:00,314.0,1.57,303.0,1.87,12.41,47.59359,-54.27349
2023-09-29 02:24:01+00:00,326.0,1.37,321.0,1.72,12.41,47.59359,-54.27349
2023-09-29 02:34:01+00:00,323.0,1.68,320.0,2.24,12.41,47.59359,-54.27349
2023-09-29 02:44:01+00:00,322.0,2.07,317.0,2.67,12.41,47.59359,-54.27349
2023-09-29 02:54:01+00:00,334.0,1.52,328.0,1.93,12.41,47.59359,-54.27349
2023-09-29 03:04:01+00:00,332.0,2.14,331.0,2.61,12.41,47.59359,-54.27349
2023-09-29 03:14:01+00:00,349.0,3.33,349.0,4.36,12.33,47.59359,-54.27349
2023-09-29 03:24:01+00:00,325.0,4.05,325.0,4.29,12.33,47.59359,-54.27349
2023-09-29 03:34:01+00:00,337.0,3.28,330.0,3.67,12.33,47.59359,-54.27349
2023-09-29 03:44:01+00:00,326.0,3.57,323.0,4.06,12.33,47.59359,-54.27349
2023-09-29 03:54:01+00:00,301.0,1.49,292.0,1.8,12.33,47.59359,-54.27349
2023-09-29 04:04:01+00:00,262.0,3.27,267.0,3.92,12.33,47.59359,-54.27349
2023-09-29 04:14:00+00:00,256.0,2.75,257.0,3.15,12.33,47.59359,-54.27349
2023-09-29 04:24:00+00:00,260.0,1.8,266.0,2.14,12.33,47.59359,-54.27349
2023-09-29 04:34:00+00:00,270.0,2.94,274.0,3.23,12.33,47.59359,-54.27349
2023-09-29 04:44:00+00:00,262.0,3.83,264.0,4.43,12.33,47.59359,-54.27349
2023-09-29 04:54:00+00:00,268.0,4.37,271.0,4.83,12.33,47.59359,-54.27349
2023-09-29 05:04:00+00:00,280.0,3.74,280.0,4.23,12.33,47.59359,-54.27349
2023-09-29 05:14:01+00:00,282.0,2.96,286.0,3.3,12.25,47.59359,-54.27349
2023-09-29 05:24:01+00:00,276.0,4.32,280.0,4.72,12.25,47.59359,-54.27349
2023-09-29 05:34:01+00:00,268.0,3.61,265.0,3.99,12.25,47.59359,-54.27349
2023-09-29 05:44:01+00:00,273.0,3.69,278.0,4.16,12.25,47.59359,-54.27349
2023-09-29 05:54:01+00:00,273.0,3.73,273.0,4.08,12.25,47.59359,-54.27349
2023-09-29 06:04:01+00:00,273.0,3.88,274.0,4.3,12.25,47.59359,-54.27349
2023-09-29 06:14:00+00:00,270.0,3.99,279.0,4.38,12.25,47.59359,-54.27349
2023-09-29 06:24:00+00:00,268.0,3.38,260.0,3.83,12.25,47.59359,-54.27349
2023-09-29 06:34:00+00:00,249.0,3.44,267.0,4.04,12.25,47.59359,-54.27349
2023-09-29 06:44:00+00:00,238.0,3.06,231.0,3.55,12.25,47.59359,-54.27349
2023-09-29 06:54:00+00:00,238.0,3.78,246.0,4.43,12.25,47.59359,-54.27349
2023-09-29 07:04:00+00:00,230.0,4.44,235.0,5.14,12.25,47.59359,-54.27349
2023-09-29 07:14:01+00:00,238.0,4.98,239.0,5.91,12.25,47.59359,-54.27349
2023-09-29 07:24:01+00:00,233.0,5.01,231.0,6.1,12.25,47.59359,-54.27349
2023-09-29 07:34:01+00:00,233.0,5.15,230.0,6.24,12.25,47.59359,-54.27349
2023-09-29 07:44:01+00:00,239.0,5.69,241.0,6.47,12.25,47.59359,-54.27349
2023-09-29 07:54:01+00:00,238.0,5.59,237.0,6.29,12.25,47.59359,-54.27349
2023-09-29 08:04:01+00:00,252.0,4.64,254.0,5.48,12.25,47.59359,-54.27349
2023-09-29 08:14:00+00:00,239.0,5.66,236.0,6.26,12.25,47.59359,-54.27349
2023-09-29 08:24:00+00:00,250.0,5.5,251.0,5.9,12.25,47.59359,-54.27349
2023-09-29 08:34:00+00:00,245.0,4.41,250.0,5.33,12.25,47.59359,-54.27349
2023-09-29 08:44:00+00:00,238.0,4.34,245.0,4.99,12.25,47.59359,-54.27349
2023-09-29 08:54:00+00:00,258.0,3.69,250.0,5.09,12.25,47.59359,-54.27349
2023-09-29 09:04:00+00:00,254.0,4.54,254.0,5.1,12.25,47.59359,-54.27349
2023-09-29 09:14:00+00:00,248.0,5.23,245.0,6.55,12.17,47.59359,-54.27349
2023-09-29 09:24:00+00:00,248.0,4.66,250.0,5.3,12.17,47.59359,-54.27349
2023-09-29 09:34:00+00:00,257.0,5.68,260.0,6.89,12.17,47.59359,-54.27349
2023-09-29 09:44:00+00:00,258.0,5.69,255.0,6.73,12.17,47.59359,-54.27349
2023-09-29 09:54:00+00:00,255.0,5.61,264.0,6.65,12.17,47.59359,-54.27349
2023-09-29 10:04:00+00:00,253.0,6.1,251.0,7.47,12.17,47.59359,-54.27349
2023-09-29 10:14:01+00:00,262.0,3.98,266.0,5.09,12.57,47.59359,-54.27349
2023-09-29 10:24:01+00:00,271.0,5.56,275.0,6.36,12.57,47.59359,-54.27349
2023-09-29 10:34:01+00:00,282.0,7.15,284.0,8.11,12.57,47.59359,-54.27349
2023-09-29 10:44:01+00:00,274.0,5.45,276.0,6.08,12.57,47.59359,-54.27349
2023-09-29 10:54:01+00:00,256.0,6.21,258.0,7.7,12.57,47.59359,-54.27349
2023-09-29 11:04:01+00:00,242.0,4.77,244.0,5.57,12.57,47.59359,-54.27349
2023-09-29 11:14:00+00:00,235.0,4.1,239.0,4.79,13.92,47.59359,-54.27349
2023-09-29 11:24:00+00:00,245.0,3.85,253.0,4.75,13.92,47.59359,-54.27349
2023-09-29 11:34:00+00:00,234.0,5.52,235.0,6.56,13.92,47.59359,-54.27349
2023-09-29 11:44:00+00:00,231.0,5.43,221.0,5.95,13.92,47.59359,-54.27349
2023-09-29 11:54:00+00:00,224.0,5.53,229.0,6.89,13.92,47.59359,-54.27349
2023-09-29 12:04:00+00:00,226.0,4.32,224.0,4.87,13.92,47.59359,-54.27349
2023-09-29 12:14:00+00:00,223.0,4.8,218.0,5.48,14.4,47.59359,-54.27349
2023-09-29 12:24:00+00:00,218.0,5.94,218.0,6.61,14.4,47.59359,-54.27349
2023-09-29 12:34:00+00:00,223.0,4.94,224.0,5.83,14.4,47.59359,-54.27349
2023-09-29 12:44:00+00:00,239.0,5.44,246.0,6.21,14.4,47.59359,-54.27349
2023-09-29 12:54:00+00:00,267.0,6.26,270.0,7.05,14.4,47.59359,-54.27349
2023-09-29 13:04:00+00:00,282.0,7.37,285.0,8.1,14.4,47.59359,-54.27349
2023-09-29 13:14:00+00:00,272.0,7.87,272.0,9.15,14.32,47.59359,-54.27349
2023-09-29 13:24:00+00:00,275.0,8.59,278.0,9.8,14.32,47.59359,-54.27349
2023-09-29 13:34:00+00:00,273.0,8.18,275.0,9.2,14.32,47.59359,-54.27349
2023-09-29 13:44:00+00:00,269.0,7.27,268.0,8.28,14.32,47.59359,-54.27349
2023-09-29 13:54:00+00:00,278.0,8.9,280.0,9.94,14.32,47.59359,-54.27349
2023-09-29 14:04:00+00:00,271.0,7.45,269.0,8.61,14.32,47.59359,-54.27349
2023-09-29 14:14:00+00:00,273.0,7.69,278.0,8.38,14.0,47.59359,-54.27349
2023-09-29 14:24:00+00:00,272.0,7.52,272.0,8.32,14.0,47.59359,-54.27349
2023-09-29 14:34:00+00:00,277.0,7.33,278.0,8.32,14.0,47.59359,-54.27349
2023-09-29 14:44:00+00:00,277.0,6.99,282.0,8.03,14.0,47.59359,-54.27349
2023-09-29 14:54:00+00:00,273.0,7.12,289.0,8.23,14.0,47.59359,-54.27349
2023-09-29 15:04:00+00:00,277.0,6.03,283.0,7.08,14.0,47.59359,-54.27349
2023-09-29 15:14:01+00:00,275.0,6.99,274.0,7.91,14.48,47.59359,-54.27349
2023-09-29 15:24:01+00:00,275.0,6.47,272.0,7.23,14.48,47.59359,-54.27349
2023-09-29 15:34:01+00:00,271.0,5.88,275.0,6.56,14.48,47.59359,-54.27349
2023-09-29 15:44:01+00:00,273.0,6.13,271.0,6.78,14.48,47.59359,-54.27349
2023-09-29 15:54:01+00:00,275.0,7.51,276.0,8.21,14.48,47.59359,-54.27349
2023-09-29 16:04:01+00:00,285.0,7.59,287.0,8.37,14.48,47.59359,-54.27349
2023-09-29 16:14:01+00:00,267.0,8.36,268.0,9.58,14.32,47.59359,-54.27349
2023-09-29 16:24:01+00:00,264.0,6.97,267.0,7.82,14.32,47.59359,-54.27349
2023-09-29 16:34:01+00:00,270.0,5.04,273.0,5.72,14.32,47.59359,-54.27349
2023-09-29 16:44:01+00:00,276.0,4.63,276.0,5.26,14.32,47.59359,-54.27349
2023-09-29 16:54:01+00:00,277.0,7.05,278.0,7.98,14.32,47.59359,-54.27349
2023-09-29 17:04:01+00:00,274.0,4.94,273.0,6.61,14.32,47.59359,-54.27349
2023-09-29 17:14:01+00:00,271.0,4.2,270.0,4.71,14.32,47.59359,-54.27349
2023-09-29 17:24:01+00:00,281.0,6.92,283.0,7.63,14.32,47.59359,-54.27349
2023-09-29 17:34:01+00:00,276.0,6.65,278.0,7.61,14.32,47.59359,-54.27349
2023-09-29 17:44:01+00:00,276.0,5.86,275.0,6.38,14.32,47.59359,-54.27349
2023-09-29 17:54:01+00:00,280.0,6.22,280.0,7.39,14.32,47.59359,-54.27349
2023-09-29 18:04:01+00:00,264.0,3.65,270.0,4.47,14.32,47.59359,-54.27349
2023-09-29 18:14:01+00:00,273.0,3.76,275.0,4.16,14.16,47.59359,-54.27349
2023-09-29 18:24:01+00:00,237.0,3.49,235.0,3.77,14.16,47.59359,-54.27349
2023-09-29 18:34:01+00:00,243.0,4.37,244.0,4.66,14.16,47.59359,-54.27349
2023-09-29 18:44:01+00:00,243.0,3.93,248.0,4.37,14.16,47.59359,-54.27349
2023-09-29 18:54:01+00:00,248.0,3.84,248.0,4.17,14.16,47.59359,-54.27349
2023-09-29 19:04:01+00:00,279.0,5.01,280.0,6.03,14.16,47.59359,-54.27349
2023-09-29 19:14:00+00:00,262.0,3.1,252.0,3.37,13.84,47.59359,-54.27349
2023-09-29 19:24:00+00:00,241.0,3.26,240.0,3.88,13.84,47.59359,-54.27349
2023-09-29 19:34:00+00:00,248.0,3.17,252.0,4.04,13.84,47.59359,-54.27349
2023-09-29 19:44:00+00:00,258.0,3.56,260.0,4.63,13.84,47.59359,-54.27349
2023-09-29 19:54:00+00:00,250.0,4.33,249.0,4.62,13.84,47.59359,-54.27349
2023-09-29 20:04:00+00:00,247.0,4.29,251.0,4.83,13.84,47.59359,-54.27349
2023-09-29 20:14:00+00:00,250.0,4.15,253.0,4.8,13.6,47.59359,-54.27349
2023-09-29 20:24:00+00:00,258.0,4.27,262.0,4.5,13.6,47.59359,-54.27349
2023-09-29 20:34:00+00:00,253.0,5.06,254.0,5.67,13.6,47.59359,-54.27349
2023-09-29 20:44:00+00:00,248.0,4.0,255.0,5.38,13.6,47.59359,-54.27349
2023-09-29 20:54:00+00:00,253.0,4.0,254.0,4.45,13.6,47.59359,-54.27349
2023-09-29 21:04:00+00:00,260.0,4.14,261.0,4.72,13.6,47.59359,-54.27349
2023-09-29 21:14:01+00:00,263.0,4.37,264.0,5.51,13.05,47.59359,-54.27349
2023-09-29 21:24:01+00:00,265.0,4.36,269.0,5.1,13.05,47.59359,-54.27349
2023-09-29 21:34:01+00:00,264.0,3.53,264.0,3.92,13.05,47.59359,-54.27349
2023-09-29 21:44:01+00:00,227.0,1.81,244.0,2.63,13.05,47.59359,-54.27349
2023-09-29 21:54:01+00:00,212.0,1.54,207.0,1.98,13.05,47.59359,-54.27349
2023-09-29 22:04:01+00:00,244.0,2.74,247.0,3.2,13.05,47.59359,-54.27349
2023-09-29 22:14:01+00:00,258.0,2.65,264.0,2.92,12.49,47.59359,-54.27349
2023-09-29 22:24:01+00:00,265.0,4.67,259.0,5.43,12.49,47.59359,-54.27349
2023-09-29 22:34:01+00:00,270.0,3.88,279.0,4.87,12.49,47.59359,-54.27349
2023-09-29 22:44:01+00:00,350.0,2.52,359.0,3.86,12.49,47.59359,-54.27349
2023-09-29 22:54:01+00:00,34.0,4.38,34.0,4.84,12.49,47.59359,-54.27349
2023-09-29 23:04:01+00:00,16.0,3.67,15.0,4.26,12.49,47.59359,-54.27349
2023-09-29 23:14:00+00:00,13.0,3.95,11.0,4.47,12.41,47.59359,-54.27349
2023-09-29 23:24:00+00:00,355.0,4.64,351.0,5.18,12.41,47.59359,-54.27349
2023-09-29 23:34:00+00:00,348.0,4.82,351.0,5.21,12.41,47.59359,-54.27349
2023-09-29 23:44:00+00:00,312.0,3.41,311.0,3.78,12.41,47.59359,-54.27349
2023-09-29 23:54:00+00:00,329.0,2.34,331.0,2.59,12.41,47.59359,-54.27349
